EZY32ZH EGCC-LEMH

Flight info

Callsign EZY32ZH
Flight time N/A
Altitude 37000
Route LISTO P18 TELBA L151 KIDLI UN859 SOPIL DCT BALAN DCT EVPOK DCT NARAK DCT GAI DCT LOMRA DCT ROCAN DCT GEANT DCT GIR DCT SALON N727 SARGO
Aircraft A21N/M-SDE2E3FGHIJ1RWXY/LB1

Departure

Time 2026-05-08 08:29
Airport Manchester Airport (EGCC)

Arrival

Time N/A
Airport Menorca Airport (LEMH)
Time Latitude Longitude Altitude Speed Heading
2026-05-08 07:48 53.36252 -2.27695 261 ft 0 kts 195°
2026-05-08 08:18 53.36254 -2.27694 260 ft 2 kts 195°
2026-05-08 08:18 53.36279 -2.27683 260 ft 4 kts 195°
2026-05-08 08:18 53.36300 -2.27674 260 ft 4 kts 199°
2026-05-08 08:19 53.36320 -2.27654 260 ft 4 kts 243°
2026-05-08 08:19 53.36322 -2.27632 260 ft 3 kts 285°
2026-05-08 08:19 53.36329 -2.27675 260 ft 4 kts 285°
2026-05-08 08:19 53.36336 -2.27719 260 ft 4 kts 284°
2026-05-08 08:20 53.36340 -2.27739 260 ft 0 kts 284°
2026-05-08 08:22 53.36342 -2.27753 260 ft 3 kts 285°
2026-05-08 08:22 53.36356 -2.27800 260 ft 6 kts 308°
2026-05-08 08:23 53.36392 -2.27869 260 ft 9 kts 304°
2026-05-08 08:23 53.36374 -2.27968 260 ft 11 kts 227°
2026-05-08 08:23 53.36312 -2.28053 260 ft 13 kts 201°
2026-05-08 08:23 53.36222 -2.28073 260 ft 14 kts 156°
2026-05-08 08:24 53.36145 -2.27960 260 ft 16 kts 143°
2026-05-08 08:24 53.36056 -2.27841 260 ft 17 kts 141°
2026-05-08 08:24 53.35954 -2.27730 260 ft 18 kts 173°
2026-05-08 08:24 53.35842 -2.27733 259 ft 12 kts 184°
2026-05-08 08:25 53.35794 -2.27697 257 ft 8 kts 137°
2026-05-08 08:25 53.35738 -2.27646 254 ft 10 kts 159°
2026-05-08 08:25 53.35674 -2.27597 252 ft 11 kts 144°
2026-05-08 08:25 53.35611 -2.27512 250 ft 12 kts 141°
2026-05-08 08:26 53.35541 -2.27416 252 ft 14 kts 141°
2026-05-08 08:26 53.35457 -2.27302 253 ft 16 kts 140°
2026-05-08 08:26 53.35366 -2.27194 251 ft 16 kts 166°
2026-05-08 08:26 53.35268 -2.27249 245 ft 16 kts 231°
2026-05-08 08:27 53.35197 -2.27402 243 ft 17 kts 232°
2026-05-08 08:27 53.35120 -2.27562 239 ft 18 kts 231°
2026-05-08 08:27 53.35058 -2.27686 237 ft 10 kts 216°
2026-05-08 08:27 53.34989 -2.27691 232 ft 10 kts 170°
2026-05-08 08:28 53.34917 -2.27671 228 ft 11 kts 171°
2026-05-08 08:28 53.34836 -2.27688 228 ft 13 kts 212°
2026-05-08 08:28 53.34770 -2.27814 228 ft 19 kts 231°
2026-05-08 08:28 53.34572 -2.28221 234 ft 78 kts 232°
2026-05-08 08:29 53.34095 -2.29206 237 ft 136 kts 231°
2026-05-08 08:29 53.33432 -2.30603 433 ft 158 kts 231°
2026-05-08 08:29 53.32741 -2.32035 1007 ft 158 kts 227°
2026-05-08 08:29 53.31984 -2.33433 1521 ft 168 kts 225°
2026-05-08 08:30 53.31026 -2.34639 2013 ft 184 kts 201°
2026-05-08 08:30 53.29715 -2.34813 2611 ft 200 kts 169°
2026-05-08 08:30 53.26920 -2.32544 3722 ft 246 kts 153°
2026-05-08 08:31 53.25383 -2.31180 4594 ft 254 kts 154°
2026-05-08 08:31 53.23811 -2.29794 5527 ft 258 kts 153°
2026-05-08 08:31 53.22380 -2.27956 6466 ft 264 kts 131°
2026-05-08 08:31 53.21265 -2.25495 7377 ft 267 kts 135°
2026-05-08 08:32 53.19753 -2.23733 8249 ft 268 kts 156°
2026-05-08 08:32 53.18026 -2.22477 9165 ft 273 kts 159°
2026-05-08 08:32 53.16259 -2.21246 10074 ft 278 kts 159°
2026-05-08 08:32 53.14382 -2.20152 10617 ft 295 kts 168°
2026-05-08 08:33 53.12282 -2.20005 11062 ft 310 kts 186°
2026-05-08 08:33 53.10135 -2.20403 11808 ft 317 kts 188°
2026-05-08 08:33 53.07893 -2.20836 12671 ft 322 kts 187°
2026-05-08 08:33 53.05653 -2.21232 13528 ft 327 kts 187°
2026-05-08 08:34 53.03376 -2.21609 14325 ft 331 kts 186°
2026-05-08 08:34 53.01098 -2.21973 15078 ft 334 kts 186°
2026-05-08 08:34 52.98736 -2.22342 15848 ft 338 kts 186°
2026-05-08 08:34 52.96418 -2.22703 16617 ft 341 kts 187°
2026-05-08 08:35 52.94034 -2.23073 17388 ft 345 kts 187°
2026-05-08 08:35 52.91623 -2.23446 18155 ft 349 kts 187°
2026-05-08 08:35 52.89190 -2.23829 18827 ft 353 kts 187°
2026-05-08 08:35 52.86730 -2.24225 19473 ft 356 kts 188°
2026-05-08 08:36 52.84318 -2.24966 20086 ft 358 kts 194°
2026-05-08 08:36 52.81885 -2.25912 20699 ft 361 kts 195°
2026-05-08 08:36 52.79422 -2.26883 21305 ft 365 kts 194°
2026-05-08 08:36 52.76942 -2.27850 21908 ft 368 kts 194°
2026-05-08 08:37 52.74429 -2.28821 22510 ft 372 kts 194°
2026-05-08 08:37 52.71899 -2.29796 23070 ft 376 kts 194°
2026-05-08 08:37 52.69325 -2.30692 23629 ft 381 kts 189°
2026-05-08 08:37 52.66660 -2.30706 24095 ft 388 kts 173°
2026-05-08 08:38 52.64069 -2.29370 24518 ft 396 kts 155°
2026-05-08 08:38 52.61713 -2.26972 24967 ft 401 kts 148°
2026-05-08 08:38 52.59401 -2.24344 25410 ft 405 kts 147°
2026-05-08 08:38 52.57066 -2.21701 25838 ft 409 kts 148°
2026-05-08 08:39 52.54689 -2.19062 26264 ft 413 kts 148°
2026-05-08 08:39 52.52314 -2.16450 26672 ft 417 kts 148°
2026-05-08 08:39 52.49885 -2.13794 27067 ft 421 kts 148°
2026-05-08 08:39 52.47433 -2.11122 27433 ft 425 kts 148°
2026-05-08 08:40 52.44947 -2.08419 27806 ft 429 kts 148°
2026-05-08 08:40 52.42439 -2.05700 28178 ft 433 kts 148°
2026-05-08 08:40 52.39917 -2.02968 28546 ft 437 kts 148°
2026-05-08 08:40 52.37371 -2.00212 28908 ft 440 kts 148°
2026-05-08 08:41 52.34799 -1.97434 29273 ft 444 kts 147°
2026-05-08 08:41 52.32207 -1.94635 29596 ft 448 kts 147°
2026-05-08 08:41 52.29592 -1.91821 29949 ft 452 kts 147°
2026-05-08 08:41 52.26955 -1.88992 30262 ft 455 kts 147°
2026-05-08 08:42 52.24322 -1.86162 30508 ft 459 kts 147°
2026-05-08 08:42 52.21644 -1.83288 30777 ft 463 kts 147°
2026-05-08 08:42 52.18935 -1.80387 31072 ft 466 kts 147°
2026-05-08 08:42 52.16224 -1.77489 31368 ft 468 kts 147°
2026-05-08 08:43 52.13484 -1.74565 31661 ft 471 kts 147°
2026-05-08 08:43 52.10732 -1.71632 31950 ft 473 kts 147°
2026-05-08 08:43 52.08907 -1.69686 32138 ft 475 kts 148°
2026-05-08 08:43 52.05194 -1.65732 32517 ft 478 kts 148°
2026-05-08 08:44 52.03345 -1.63761 32718 ft 479 kts 148°
2026-05-08 08:44 52.00561 -1.60799 33009 ft 480 kts 148°
2026-05-08 08:44 51.97763 -1.57842 33319 ft 480 kts 148°
2026-05-08 08:44 51.94957 -1.54882 33672 ft 480 kts 148°
2026-05-08 08:45 51.92156 -1.51934 33992 ft 480 kts 148°
2026-05-08 08:45 51.89353 -1.48988 34265 ft 480 kts 149°
2026-05-08 08:45 51.86593 -1.46091 34564 ft 479 kts 149°
2026-05-08 08:45 51.83810 -1.43169 34970 ft 474 kts 148°
2026-05-08 08:46 51.81057 -1.40280 35344 ft 470 kts 148°
2026-05-08 08:46 51.78304 -1.37440 35634 ft 468 kts 151°
2026-05-08 08:46 51.75373 -1.35204 35858 ft 464 kts 162°
2026-05-08 08:46 51.72315 -1.33581 36102 ft 462 kts 165°
2026-05-08 08:47 51.69242 -1.32069 36346 ft 461 kts 165°
2026-05-08 08:47 51.66176 -1.30559 36587 ft 460 kts 165°
2026-05-08 08:47 51.63119 -1.29034 36827 ft 459 kts 165°
2026-05-08 08:47 51.60077 -1.27503 37065 ft 458 kts 165°
2026-05-08 08:48 51.53994 -1.24432 37115 ft 457 kts 165°
2026-05-08 08:48 51.47976 -1.21143 37082 ft 459 kts 158°
2026-05-08 08:49 51.42171 -1.16871 37078 ft 459 kts 157°
2026-05-08 08:49 51.36372 -1.12586 37080 ft 459 kts 157°
2026-05-08 08:50 51.30562 -1.08330 37074 ft 460 kts 157°
2026-05-08 08:50 51.24737 -1.04073 37084 ft 460 kts 157°
2026-05-08 08:51 51.18921 -0.99826 37082 ft 460 kts 157°
2026-05-08 08:51 51.13102 -0.95594 37082 ft 460 kts 158°
2026-05-08 08:52 51.07336 -0.91414 37079 ft 455 kts 158°
2026-05-08 08:52 51.01533 -0.87220 37084 ft 456 kts 158°
2026-05-08 08:53 50.95764 -0.83056 37078 ft 455 kts 158°
2026-05-08 08:53 50.89989 -0.78912 37078 ft 455 kts 158°
2026-05-08 08:54 50.84329 -0.74520 37075 ft 458 kts 150°
2026-05-08 08:54 50.78965 -0.69071 37083 ft 458 kts 149°
2026-05-08 08:55 50.73611 -0.63588 37080 ft 458 kts 149°
2026-05-08 08:55 50.68248 -0.58143 37082 ft 458 kts 149°
2026-05-08 08:56 50.62877 -0.52711 37080 ft 459 kts 149°
2026-05-08 08:56 50.57497 -0.47285 37088 ft 459 kts 149°
2026-05-08 08:57 50.52118 -0.41876 37086 ft 459 kts 149°
2026-05-08 08:57 50.46765 -0.36514 37085 ft 459 kts 149°
2026-05-08 08:58 50.41374 -0.31120 37070 ft 459 kts 149°
2026-05-08 08:58 50.35977 -0.25734 37082 ft 460 kts 149°
2026-05-08 08:59 50.30580 -0.20368 37089 ft 459 kts 149°
2026-05-08 08:59 50.25180 -0.15013 37086 ft 459 kts 149°
2026-05-08 09:00 50.19779 -0.09667 37091 ft 459 kts 149°
2026-05-08 09:00 50.14360 -0.04324 37081 ft 461 kts 150°
2026-05-08 09:01 50.08797 0.00418 37075 ft 456 kts 163°
2026-05-08 09:01 50.02719 0.02955 37086 ft 451 kts 169°
2026-05-08 09:02 49.96618 0.05283 37068 ft 451 kts 168°
2026-05-08 09:02 49.90518 0.07665 37080 ft 452 kts 168°
2026-05-08 09:03 49.84418 0.10056 37077 ft 452 kts 168°
2026-05-08 09:03 49.78309 0.12442 37074 ft 453 kts 168°
2026-05-08 09:04 49.72193 0.14826 37070 ft 453 kts 169°
2026-05-08 09:04 49.66073 0.17218 37076 ft 454 kts 168°
2026-05-08 09:05 49.59965 0.19693 37082 ft 454 kts 168°
2026-05-08 09:05 49.53860 0.22157 37082 ft 454 kts 168°
2026-05-08 09:06 49.47771 0.24599 37071 ft 456 kts 168°
2026-05-08 09:06 49.41627 0.27056 37082 ft 456 kts 168°
2026-05-08 09:07 49.35485 0.29508 37080 ft 456 kts 168°
2026-05-08 09:07 49.29342 0.31964 37071 ft 456 kts 168°
2026-05-08 09:08 49.23203 0.34570 37066 ft 458 kts 168°
2026-05-08 09:08 49.17062 0.37171 37041 ft 458 kts 168°
2026-05-08 09:09 49.10924 0.39748 37045 ft 458 kts 168°
2026-05-08 09:09 49.04773 0.42325 37041 ft 460 kts 168°
2026-05-08 09:10 48.98608 0.44900 37045 ft 459 kts 168°
2026-05-08 09:10 48.92512 0.47441 37041 ft 456 kts 168°
2026-05-08 09:11 48.86385 0.49985 37041 ft 456 kts 168°
2026-05-08 09:11 48.80257 0.52525 37041 ft 456 kts 168°
2026-05-08 09:12 48.74120 0.54988 37044 ft 456 kts 169°
2026-05-08 09:12 48.67966 0.57378 37037 ft 456 kts 169°
2026-05-08 09:13 48.61819 0.59777 37025 ft 458 kts 169°
2026-05-08 09:13 48.55643 0.62188 37033 ft 458 kts 169°
2026-05-08 09:14 48.49467 0.64617 37034 ft 459 kts 168°
2026-05-08 09:14 48.43348 0.67124 37013 ft 459 kts 168°
2026-05-08 09:15 48.37135 0.69653 37029 ft 460 kts 168°
2026-05-08 09:15 48.30956 0.72157 37031 ft 460 kts 168°
2026-05-08 09:16 48.24813 0.74637 37032 ft 460 kts 168°
2026-05-08 09:16 48.18631 0.77078 37020 ft 459 kts 169°
2026-05-08 09:17 48.12436 0.79506 37024 ft 460 kts 169°
2026-05-08 09:17 48.06253 0.81929 37023 ft 460 kts 169°
2026-05-08 09:18 48.00062 0.84350 37010 ft 460 kts 169°
2026-05-08 09:18 47.93872 0.86768 37024 ft 458 kts 169°
2026-05-08 09:19 47.87705 0.89168 37019 ft 458 kts 169°
2026-05-08 09:19 47.81586 0.91544 37021 ft 458 kts 169°
2026-05-08 09:20 47.75419 0.93934 37010 ft 458 kts 169°
2026-05-08 09:20 47.69243 0.96318 37018 ft 458 kts 169°
2026-05-08 09:21 47.63059 0.98704 37017 ft 458 kts 169°
2026-05-08 09:23 47.41449 1.06430 37009 ft 451 kts 182°
2026-05-08 09:23 47.35209 1.06336 36991 ft 448 kts 186°
2026-05-08 09:24 47.28957 1.06129 37011 ft 449 kts 186°
2026-05-08 09:24 47.22712 1.05974 36999 ft 449 kts 186°
2026-05-08 09:25 47.16505 1.05830 36985 ft 449 kts 186°
2026-05-08 09:25 47.10253 1.05683 36994 ft 448 kts 186°
2026-05-08 09:26 47.04012 1.05532 36995 ft 449 kts 186°
2026-05-08 09:26 46.97773 1.05315 36996 ft 448 kts 187°
2026-05-08 09:27 46.91544 1.05028 36991 ft 447 kts 187°
2026-05-08 09:27 46.85323 1.04758 36995 ft 447 kts 187°
2026-05-08 09:28 46.79104 1.04500 36993 ft 447 kts 187°
2026-05-08 09:28 46.72873 1.04241 36991 ft 447 kts 187°
2026-05-08 09:29 46.66652 1.03976 36990 ft 447 kts 187°
2026-05-08 09:29 46.60432 1.03709 36991 ft 447 kts 187°
2026-05-08 09:30 46.54213 1.03444 36974 ft 446 kts 187°
2026-05-08 09:30 46.47992 1.04435 36982 ft 456 kts 172°
2026-05-08 09:31 46.41853 1.06579 36986 ft 456 kts 171°
2026-05-08 09:31 46.35674 1.08682 36974 ft 456 kts 172°
2026-05-08 09:32 46.30541 1.10389 36976 ft 455 kts 172°
2026-05-08 09:32 46.24374 1.12427 36984 ft 454 kts 172°
2026-05-08 09:33 46.18211 1.14470 36986 ft 454 kts 172°
2026-05-08 09:33 46.12055 1.16504 36987 ft 453 kts 172°
2026-05-08 09:34 46.05910 1.18530 36982 ft 453 kts 172°
2026-05-08 09:34 45.99737 1.20564 36996 ft 457 kts 172°
2026-05-08 09:35 45.93542 1.22602 36984 ft 456 kts 172°
2026-05-08 09:35 45.87361 1.24628 36992 ft 455 kts 172°
2026-05-08 09:36 45.81186 1.26652 36993 ft 455 kts 172°
2026-05-08 09:36 45.75011 1.28666 36985 ft 455 kts 173°
2026-05-08 09:37 45.68844 1.30677 36980 ft 454 kts 173°
2026-05-08 09:37 45.62717 1.32670 36984 ft 454 kts 173°
2026-05-08 09:38 45.56559 1.34666 36961 ft 454 kts 173°
2026-05-08 09:38 45.50417 1.36654 36979 ft 451 kts 173°
2026-05-08 09:39 45.44294 1.38628 36982 ft 452 kts 173°
2026-05-08 09:39 45.38163 1.40602 36986 ft 451 kts 173°
2026-05-08 09:40 45.32041 1.42572 36985 ft 449 kts 173°
2026-05-08 09:40 45.25981 1.44518 36989 ft 449 kts 173°
2026-05-08 09:41 45.19881 1.46472 36990 ft 449 kts 173°
2026-05-08 09:41 45.13793 1.48420 36987 ft 446 kts 173°
2026-05-08 09:42 45.07733 1.50350 36994 ft 446 kts 173°
2026-05-08 09:42 45.01679 1.52273 36993 ft 446 kts 173°
2026-05-08 09:43 44.95608 1.54199 36983 ft 448 kts 173°
2026-05-08 09:43 44.89524 1.56128 36988 ft 447 kts 173°
2026-05-08 09:44 44.83456 1.58045 36992 ft 447 kts 173°
2026-05-08 09:44 44.77377 1.59948 36990 ft 447 kts 173°
2026-05-08 09:45 44.71338 1.61845 36987 ft 447 kts 173°
2026-05-08 09:45 44.65262 1.63757 36986 ft 447 kts 173°
2026-05-08 09:46 44.59197 1.65651 36962 ft 446 kts 173°
2026-05-08 09:46 44.53166 1.67542 36976 ft 443 kts 173°
2026-05-08 09:47 44.47146 1.69416 36992 ft 443 kts 173°
2026-05-08 09:47 44.41131 1.71289 36991 ft 443 kts 173°
2026-05-08 09:48 44.35132 1.73154 36981 ft 440 kts 174°
2026-05-08 09:48 44.29189 1.74950 36979 ft 438 kts 176°
2026-05-08 09:49 44.23189 1.76306 36984 ft 437 kts 177°
2026-05-08 09:49 44.17197 1.77620 36982 ft 435 kts 177°
2026-05-08 09:50 44.11213 1.78941 36985 ft 435 kts 177°
2026-05-08 09:50 44.05235 1.80261 36983 ft 435 kts 177°
2026-05-08 09:51 43.99250 1.81573 36964 ft 434 kts 177°
2026-05-08 09:51 43.93295 1.82640 36973 ft 429 kts 182°
2026-05-08 09:52 43.87342 1.83225 36972 ft 429 kts 182°
2026-05-08 09:52 43.81391 1.83797 36956 ft 428 kts 182°
2026-05-08 09:53 43.75498 1.84369 36972 ft 427 kts 182°
2026-05-08 09:53 43.69565 1.84943 36970 ft 427 kts 182°
2026-05-08 09:54 43.63636 1.85517 36966 ft 426 kts 182°
2026-05-08 09:54 43.57723 1.86091 36963 ft 425 kts 182°
2026-05-08 09:55 43.51829 1.86657 36968 ft 425 kts 182°
2026-05-08 09:55 43.45929 1.87217 36968 ft 424 kts 182°
2026-05-08 09:56 43.40070 1.87775 36958 ft 424 kts 182°
2026-05-08 09:56 43.34217 1.88337 36965 ft 421 kts 182°
2026-05-08 09:57 43.25447 1.89187 36970 ft 421 kts 182°
2026-05-08 09:57 43.19591 1.89746 36964 ft 421 kts 182°
2026-05-08 09:58 43.13766 1.90296 36964 ft 419 kts 182°
2026-05-08 09:58 43.07945 1.90849 36960 ft 419 kts 182°
2026-05-08 09:59 43.02129 1.91406 36954 ft 423 kts 182°
2026-05-08 09:59 42.96272 1.91942 36952 ft 419 kts 182°
2026-05-08 10:00 42.90431 1.92497 36958 ft 419 kts 182°
2026-05-08 10:00 42.84611 1.93036 36958 ft 419 kts 182°
2026-05-08 10:01 42.78824 1.93572 36965 ft 419 kts 182°
2026-05-08 10:01 42.72992 1.94124 36957 ft 420 kts 182°
2026-05-08 10:02 42.67200 1.95687 36968 ft 437 kts 163°
2026-05-08 10:02 42.64519 1.97710 36974 ft 447 kts 150°
2026-05-08 10:02 42.62079 2.00376 36974 ft 451 kts 146°
2026-05-08 10:03 42.57298 2.05916 36976 ft 449 kts 146°
2026-05-08 10:03 42.52516 2.11332 36985 ft 445 kts 147°
2026-05-08 10:04 42.47773 2.16644 36996 ft 445 kts 147°
2026-05-08 10:04 42.42996 2.21970 37002 ft 445 kts 147°
2026-05-08 10:05 42.38203 2.27314 36987 ft 445 kts 147°
2026-05-08 10:05 42.33457 2.32598 37007 ft 445 kts 147°
2026-05-08 10:06 42.28658 2.37922 37012 ft 445 kts 147°
2026-05-08 10:06 42.23871 2.43232 37015 ft 446 kts 147°
2026-05-08 10:07 42.19081 2.48543 37017 ft 446 kts 147°
2026-05-08 10:07 42.14284 2.53848 37017 ft 445 kts 147°
2026-05-08 10:08 42.09488 2.59138 37023 ft 445 kts 148°
2026-05-08 10:08 42.04698 2.64408 37023 ft 445 kts 147°
2026-05-08 10:09 41.99895 2.69695 37018 ft 448 kts 148°
2026-05-08 10:09 41.95090 2.74968 37003 ft 449 kts 148°
2026-05-08 10:10 41.90148 2.80007 37020 ft 443 kts 152°
2026-05-08 10:10 41.85107 2.84798 37033 ft 443 kts 152°
2026-05-08 10:11 41.80073 2.89604 37030 ft 444 kts 152°
2026-05-08 10:11 41.75090 2.94391 37037 ft 443 kts 152°
2026-05-08 10:12 41.71133 2.98167 37037 ft 443 kts 152°
2026-05-08 10:13 41.70619 2.98657 37038 ft 443 kts 152°
2026-05-08 10:14 41.65583 3.03438 37042 ft 443 kts 152°
2026-05-08 10:14 41.63085 3.05810 36774 ft 440 kts 152°
2026-05-08 10:14 41.60573 3.08184 36477 ft 444 kts 152°
2026-05-08 10:15 41.58049 3.10572 36212 ft 444 kts 152°
2026-05-08 10:15 41.55536 3.12951 35952 ft 442 kts 152°
2026-05-08 10:15 41.53026 3.15326 35692 ft 441 kts 152°
2026-05-08 10:15 41.50522 3.17692 35419 ft 439 kts 152°
2026-05-08 10:16 41.47990 3.19929 35182 ft 434 kts 155°